STARLINK-32304, 60738

Orbit data source: Space-Track

STARLINK-32304, 60738 is a payload satellite owned by SpaceX/Seattle (US) in LEO that was launched on Wed, 28 Aug 2024 UTC via an FALCON 9 launch vehicle from the Air Force Eastern Test Range (AFETR). Payload-class satellites include a variety of spacecraft equipped with specific instruments for various scientific and technological missions. These include communications satellites like Starlink; space stations such as the ISS; scientific satellites like the Hubble; Earth observation satellites from companies like Planet Labs, Umbra, and HawkEye 360; GPS; miniature CubeSats for education and research; and military/defense satellites.

Loading next visibility...
Identifier
60738, 2024-152U
Orbit
LEO
Country
Flag of USUS
Related business
Manufacturer
SpaceX/Seattle
Mission
Operational Commercial Communications
Bus & Motor
STARLINK V2M, Unknown motor
Mass
730 kg wet, ~700 kg dry
Launch date (UTC)
2024-08-28 (2 years ago)
Launch vehicle
FALCON 9
Launch site
Air Force Eastern Test Range (AFETR)
Object type
Payload
Rocket body
Debris
Shape & HBR
Box + 2 Pan, 17.7 m
Radar Cross Section
33.884 m², Large (>1 m²)

Expand to show TLE details & history
Last TLE update: 11 hours ago

TLE from 11 hours ago
0 STARLINK-32304
1 60738U 24152U   26123.98395095  .00002085  00000-0  82522-4 0  9998
2 60738  53.1611  11.8037 0000979 100.1953 259.9158 15.30187149 95313
Epoch: 2026-05-03T23:36Z
TLE epoch observation values (Epoch: 2026-05-03T23:36:53.362Z)
Latitude
-0.00002°
Longitude
155.70168°
Altitude
476.271 km
Speed
7.629 km/s
True Right ascension
00h 47m 12s
True Declination
0° 00' 00"
Sunlit
Object was in daylight at epoch
Visualization orbit readout
Latitude
Unknown
Longitude
Unknown
Altitude
Unknown
Speed
Unknown
Apparent Right ascension
Unknown
Apparent Declination
Unknown
Sunlit
N/A
Visualization observer readout
Local Sidereal Time
18:44:44
Azimuth
Unknown
Elevation
Unknown
Doppler factor
Unknown
Orbital elements
Apogee altitude
476.181 km
Perigee altitude
474.839 km
Semi-major axis
6,853.647 km
Eccentricity
0.0001
Inclination
53.1611°
RAAN
11.8037°
Arg. of periapsis
100.1953°
True anomaly
259.90476°
Mean anomaly
259.9158°
Eccentric anomaly
259.91028°
Mean motion
3.82526 °/min
Orbital period
94.11 mins
BSTAR
0.000082522
Loading maneuver chart data...
Computing Atmospheric mass density...
Loading historical data...
Loading historical data...
Loading historical data...
Loading historical data...
Loading historical data...
Loading historical data...
Loading historical data...

Documentation

Showing up to 5 results
|